"Pseudo-MPEC" for P11ZQp7

Created 2024 Oct 4 20:22:21 UT using Find_Orb

Click here for an explanation of pseudo-MPECs

 
 Astrometry: 
     P11ZQp7* C2024 10 01.53249503 22 05.162-43 51 11.76   ~A1E7 21.31wXNEOCPF51
     P11ZQp7  C2024 10 01.53964103 22 04.846-43 51 14.49   ~A1E7 21.26wXNEOCPF51
     P11ZQp7  C2024 10 01.54675303 22 04.535-43 51 17.21   ~A1E7 21.06wXNEOCPF51
     P11ZQp7  C2024 10 01.55385003 22 04.207-43 51 19.91   ~A1E7 21.44wXNEOCPF51
     P11ZQp7 |C2024 10 02.29924003 21 32.640-43 55 51.40   ~A297 20.9 GVNEOCP807
     P11ZQp7 |C2024 10 02.30294203 21 32.460-43 55 52.60   ~A297 20.6 GVNEOCP807
     P11ZQp7 |C2024 10 02.30663003 21 32.290-43 55 53.90   ~A297 20.8 GVNEOCP807

Station data:
(807) Cerro Tololo Observatory, La Serena  (S30.169133 W70.805900)  Chile.
   Observer R. Holmes. 0.61-m f/6.5 astrograph + CCD.
(F51) Pan-STARRS 1, Haleakala  (N20.707234 W156.255910)  US/Hawaii.
   Observers J. Bulger, T. Lowe, A. Schultz, M. Willman. Measurers K.
   Chambers, S. Chastel, T. de Boer, L. Denneau, J. Fairlamb, H. Flewelling,
   M. Huber, C.-C. Lin, E. Magnier, Y. Ramanjooloo, R. Wainscoat, R. Weryk.
   1.8-m Ritchey-Chrétien + CCD.

Orbital elements:  P11ZQp7
   Perihelion 2023 Dec 18.91314 +/- 552 TT = 21:54:55 (JD 2460297.41314)
Epoch 2024 Oct  2.0 TT = JDT 2460585.5                           AutoNEOCP
M  27.32731816 +/- 60               (J2000 ecliptic)
n   0.09485791 +/- 0.0973           Peri.  190.67474 +/- 100
a   4.76160833 +/- 3.26             Node   102.98850 +/- 44
e   0.5452676 +/- 0.251             Incl.   43.86758 +/- 25
P  10.39036                H 15.70  G  0.15   U 11.2  SR
q 2.16525736 +/- 1.42    Q 7.35795929 +/- 12.5
From 7 observations 2024 Oct. 1-2 (18.6 hr); mean residual 0".08
Residuals in arcseconds: 
241001 F51  .08+  .09+    241001 F51  .15-  .09-    241002 807  .08-  .08+    
241001 F51  .04+  .03+    241002 807  .13+  .10-    
241001 F51  .04+  .03-    241002 807  .03-  .04+    

Ephemerides (geocentric):
Date (UTC) HH   RA             Dec           delta  r     elong  mag " sig PA
---- --------  ------------   ------------  ------ ------ -----  --- --------
2024 10 04 20  03 19 39.045   -44 10 18.40  2.5555 3.1746 119.9 21.1 57.3  59
2024 10 04 21  03 19 37.101   -44 10 31.84  2.5557 3.1748 119.9 21.1 59.1  59
2024 10 04 22  03 19 35.156   -44 10 45.24  2.5558 3.1750 119.9 21.1 60.8  59
2024 10 04 23  03 19 33.207   -44 10 58.62  2.5559 3.1752 119.9 21.1 62.6  59
2024 10 05 00  03 19 31.257   -44 11 11.98  2.5561 3.1755 119.9 21.1 64.4  59
2024 10 05 01  03 19 29.304   -44 11 25.30  2.5562 3.1757 119.9 21.1 66.2  59
2024 10 05 02  03 19 27.348   -44 11 38.60  2.5563 3.1759 119.9 21.1 68.1  59
2024 10 05 03  03 19 25.391   -44 11 51.87  2.5565 3.1761 119.9 21.1 70.0  58
2024 10 05 04  03 19 23.431   -44 12 05.11  2.5566 3.1763 119.9 21.1 71.9  58
2024 10 05 05  03 19 21.468   -44 12 18.32  2.5568 3.1765 120.0 21.1 73.8  58
2024 10 05 06  03 19 19.503   -44 12 31.51  2.5569 3.1767 120.0 21.1 75.8  58
2024 10 05 07  03 19 17.536   -44 12 44.67  2.5570 3.1770 120.0 21.1 77.7  58
2024 10 05 08  03 19 15.566   -44 12 57.80  2.5572 3.1772 120.0 21.1 79.8  58
2024 10 05 09  03 19 13.594   -44 13 10.90  2.5573 3.1774 120.0 21.1 81.8  58
2024 10 05 10  03 19 11.620   -44 13 23.97  2.5574 3.1776 120.0 21.1 83.9  58
2024 10 05 11  03 19 09.643   -44 13 37.02  2.5576 3.1778 120.0 21.1 86.0  58
2024 10 05 12  03 19 07.664   -44 13 50.04  2.5577 3.1780 120.0 21.1 88.1  58
2024 10 05 13  03 19 05.683   -44 14 03.03  2.5578 3.1782 120.0 21.1 90.2  58
2024 10 05 14  03 19 03.699   -44 14 15.99  2.5580 3.1784 120.0 21.1 92.4  58
2024 10 05 15  03 19 01.713   -44 14 28.92  2.5581 3.1787 120.0 21.1 94.6  58
2024 10 05 16  03 18 59.725   -44 14 41.83  2.5583 3.1789 120.0 21.1 96.8  57
2024 10 05 17  03 18 57.734   -44 14 54.71  2.5584 3.1791 120.0 21.1   99  57
2024 10 05 18  03 18 55.741   -44 15 07.56  2.5585 3.1793 120.1 21.1  101  57
2024 10 05 19  03 18 53.746   -44 15 20.38  2.5587 3.1795 120.1 21.1  104  57
2024 10 05 20  03 18 51.748   -44 15 33.17  2.5588 3.1797 120.1 21.1  106  57
2024 10 05 21  03 18 49.748   -44 15 45.94  2.5589 3.1799 120.1 21.1  108  57
2024 10 05 22  03 18 47.746   -44 15 58.67  2.5591 3.1801 120.1 21.1  111  57
2024 10 05 23  03 18 45.741   -44 16 11.38  2.5592 3.1804 120.1 21.1  113  57
2024 10 06 00  03 18 43.734   -44 16 24.06  2.5594 3.1806 120.1 21.1  115  57
2024 10 06 01  03 18 41.725   -44 16 36.71  2.5595 3.1808 120.1 21.1  118  57
2024 10 06 02  03 18 39.714   -44 16 49.34  2.5596 3.1810 120.1 21.1  120  57
2024 10 06 03  03 18 37.700   -44 17 01.93  2.5598 3.1812 120.1 21.1  123  57
2024 10 06 04  03 18 35.684   -44 17 14.50  2.5599 3.1814 120.1 21.1  125  57
2024 10 06 05  03 18 33.665   -44 17 27.03  2.5601 3.1816 120.1 21.1  128  57
2024 10 06 06  03 18 31.644   -44 17 39.54  2.5602 3.1818 120.1 21.1  131  57
2024 10 06 07  03 18 29.621   -44 17 52.02  2.5603 3.1821 120.1 21.1  133  57
2024 10 06 08  03 18 27.596   -44 18 04.48  2.5605 3.1823 120.2 21.1  136  57
2024 10 06 09  03 18 25.569   -44 18 16.90  2.5606 3.1825 120.2 21.1  138  56
2024 10 06 10  03 18 23.539   -44 18 29.30  2.5608 3.1827 120.2 21.1  141  56
2024 10 06 11  03 18 21.507   -44 18 41.66  2.5609 3.1829 120.2 21.1  144  56
2024 10 06 12  03 18 19.472   -44 18 54.00  2.5611 3.1831 120.2 21.1  147  56
2024 10 06 13  03 18 17.436   -44 19 06.31  2.5612 3.1833 120.2 21.1  149  56
2024 10 06 14  03 18 15.397   -44 19 18.59  2.5613 3.1835 120.2 21.1  152  56
2024 10 06 15  03 18 13.356   -44 19 30.84  2.5615 3.1838 120.2 21.1  155  56
2024 10 06 16  03 18 11.312   -44 19 43.06  2.5616 3.1840 120.2 21.1  158  56
2024 10 06 17  03 18 09.267   -44 19 55.26  2.5618 3.1842 120.2 21.1  161  56
2024 10 06 18  03 18 07.219   -44 20 07.42  2.5619 3.1844 120.2 21.1  164  56
2024 10 06 19  03 18 05.168   -44 20 19.56  2.5621 3.1846 120.2 21.1  167  56